www.pogodaiklimat.ru
ПОГОДА в Коммунаре
Время
(UTC), дата
00 12.06
03 12.06
06 12.06
09 12.06
12 12.06
15 12.06
18 12.06
21 12.06
00 13.06
03 13.06
06 13.06
09 13.06
12 13.06
15 13.06
18 13.06
21 13.06
00 14.06
03 14.06
06 14.06
09 14.06
12 14.06
15 14.06
18 14.06
21 14.06
00 15.06
03 15.06
06 15.06
09 15.06
12 15.06
15 15.06
18 15.06
21 15.06
00 16.06
03 16.06
06 16.06
09 16.06
12 16.06
15 16.06
18 16.06
21 16.06
00 17.06
03 17.06
06 17.06
09 17.06
12 17.06
15 17.06
18 17.06
21 17.06
00 18.06
03 18.06
06 18.06
09 18.06
12 18.06
15 18.06
18 18.06
Ветер
(напр.,м/с)
Видим. Явления Облачность Т
(С)
Тd
(С)
f
(%)
Тe
(С)
Тes
(С)
Комфортность P
(гПа)
Po
(гПа)
Тmin
(С)
Tmax
(С)
R
(мм)
R24
(мм)
S
(см)
штиль 0 50 км 9/0
[Ac trans]
+3.5 +1.7 88 +2 +4 1016.5 916.8 +2.2
штиль 0 50 км 10/0
[Ac As]
+8.1 +2.4 67 +8 +12 1014.9 916.9
штиль 0 50 км 10/0
[Ac As]
+10.6 -1.0 44 +10 +17 1014.4 917.2
штиль 0 50 км 10/3 600 м
[Sc Ac und]
+12.9 +3.0 51 +13 +16 1013.5 917.2
штиль 0 50 км 9/3 600 м
[Sc Ac trans Cs]
+13.0 +4.8 57 +13 +14 1013.2 917.0 +13.7
штиль 0 50 км 4/0
[Ac trans Ci fib]
+8.5 +3.9 73 +8 +8 1015.4 917.5
штиль 0 н/о 4/0
[Ci fib]
+6.2 +3.1 81 +5 +5 1016.4 917.6
штиль 0 н/о 8/0
[Ac trans Ci sp]
+4.8 +1.8 81 +4 +4 1017.1 917.7
штиль 0 50 км 8/0
[Ac trans]
+6.0 +3.6 85 +5 +7 1016.7 917.8 +4.3
штиль 0 50 км 8/3 600 м
[Cu hum Ci fib]
+15.2 +4.0 47 +15 +24 1012.9 917.4
штиль 0 50 км 8/6 600 м
[Cu Sc Ci fib]
+15.6 +3.1 43 +16 +24 1011.9 916.5
штиль 0 50 км 8/6 600 м
[Cu Sc Ci fib]
+17.2 +0.5 32 +17 +23 1010.4 915.6
СЗ 1 50 км 9/4 600 м
[Cu hum Ac trans Ci fib]
+15.8 +0.9 36 +17 +18 1010.9 915.6 +17.8
ЮЗ 1 50 км слаб. ливневой дождь 10/8 600 м
[Cb cap Ac und]
+8.8 +6.7 87 +8 +8 1014.3 916.6
Ю 2 н/о слаб. ливневой дождь 10/8 600 м
[Cb cap Ac und]
+8.2 +6.7 90 +6 +6 1013.6 915.8
ЮЗ 1 н/о слаб. ливневой дождь 10/8 600 м
[Cb cap Ac und]
+8.3 +6.8 90 +7 +7 1013.5 915.8
штиль 0 50 км слаб. ливневой дождь 10/10 600 м
[Cb cap]
+8.6 +8.2 97 +8 +8 1013.7 916.1 +7.8 13
штиль 0 2000 м дымка {ливн. дождь} 10/10 600 м
[Cb cap]
+10.6 +10.0 96 +10 +10 1014.9 917.8
СЗ 2 50 км слаб. ливневой дождь 9/9 600 м
[Cb cap]
+13.7 +11.5 87 +13 +15 1014.1 918.2
С 2 50 км {ливн. дождь} 5/5 600 м
[Cb cap]
+13.8 +8.2 69 +13 +19 1014.8 918.7
В 1 50 км {ливн. дождь} 6/0
[Ci sp]
+12.6 +5.0 60 +13 +15 1016.6 919.9 +15.5 2
штиль 0 50 км ясно +8.0 +5.1 82 +7 +7 1019.7 921.3
штиль 0 н/о ясно +4.6 +3.1 90 +4 +4 1021.6 921.8
штиль 0 н/о ясно +3.1 +2.3 94 +2 +2 1021.7 921.4
штиль 0 50 км ясно +6.8 +4.5 85 +6 +9 1020.6 921.6 +2.7
С 1 50 км 3/3 600 м
[Cu hum]
+14.2 +5.3 55 +15 +24 1018.0 921.7
СВ 1 50 км 8/3 600 м
[Cu Sc Ci fib]
+17.2 +4.6 43 +18 +30 опасность
простуды
1016.2 921.0
ЮВ 1 50 км 9/5 600 м
[Cb cap Cs]
+18.8 +3.2 35 +20 +26 1014.2 919.6
штиль 0 50 км 10/4 600 м
[Sc Ac und]
+16.0 +7.6 57 +16 +17 1015.0 919.6 +19.2
штиль 0 50 км 3/3 600 м
[Sc]
+12.0 +6.3 68 +12 +12 1015.7 918.9
З 1 н/о 9/5 600 м
[Sc Ac trans]
+13.2 +4.8 57 +14 +14 1014.4 918.2
Ю 1 н/о ливневой дождь 10/10 600 м
[Cb cap]
+10.6 +9.0 90 +10 +10 1016.1 918.9
штиль 0 50 км {ливн. дождь} 10/8 600 м
[Cb cap Ac und]
+10.6 +9.2 91 +10 +10 1014.9 917.8 +10.0 9
штиль 0 50 км {ливн. дождь} 9/6 600 м
[Cb cap Ac trans]
+11.6 +10.0 90 +11 +14 1015.0 918.3
З 2 50 км {ливн. дождь} 10/8 600 м
[Cb cap Ac und]
+14.6 +11.8 83 +14 +15 1014.3 918.7
СЗ 1 50 км гроза без осадков 9/5 600 м
[Cb cap Ac trans]
+19.6 +12.7 64 +22 +26 комфорт 1012.0 918.1
штиль 0 50 км гроза, ливневой дождь 10/8 600 м
[Cb cap Ac und]
+15.4 +13.3 87 +15 +15 1014.5 919.1 +20.1 2
З 1 50 км {гроза, ливн. дождь} 10/3 600 м
[Cb cap Ac und]
+11.8 +11.0 95 +12 +12 1015.9 919.2
штиль 0 н/о {гроза, ливн. дождь} 8/0
[Ac trans Ci fib]
+10.6 +10.2 97 +10 +10 1015.8 918.7
штиль 0 н/о 6/0
[Ac trans Ci fib]
+10.8 +10.0 95 +10 +10 1014.9 917.9
штиль 0 50 км 4/0
[Ac trans]
+13.0 +10.7 86 +13 +15 1014.1 917.9 +9.4 0.0
СВ 2 50 км 3/3 600 м
[Sc]
+18.0 +13.0 73 +19 +26 1012.0 917.6
В 1 50 км гроза без осадков 8/8 600 м
[Cb cap]
+21.6 +13.1 58 +24 +28 комфорт 1009.6 916.5
ЮВ 1 50 км {гроза, ливн. дождь} 8/8 600 м
[Cb cap]
+22.2 +12.6 54 +25 +27 комфорт 1008.1 915.4
З 2 50 км гроза, ливневой дождь 9/9 600 м
[Cb cap]
+19.0 +14.2 74 +21 +21 комфорт 1008.3 914.6 +24.1 0.7
С 1 10 км слаб. ливневой дождь {гроза} 9/9 600 м
[Cb cap]
+14.8 +12.2 84 +15 +15 1010.5 915.3
штиль 0 н/о {гроза, ливн. дождь} 3/0 600 м
[Ci fib]
+10.8 +10.0 95 +10 +10 1011.5 914.8
штиль 0 н/о ясно +10.8 +10.0 95 +10 +10 1010.5 913.9
штиль 0 50 км 1/0
[Ac trans]
+11.2 +10.4 95 +10 +13 1009.5 913.2 +10.0 0.4
ЮЗ 1 50 км 6/3 600 м
[Cu hum Ci fib]
+21.6 +10.3 49 +23 +31 комфорт 1005.9 913.1
ЮВ 2 50 км 8/4 600 м
[Cu med, cong Ci fib]
+24.0 +9.1 39 +25 +33 комфорт 1004.3 912.4
З 2 50 км в посл. час ливневой дождь {гроза} 8/8 600 м
[Cb cap]
+23.3 +11.6 48 +26 +28 жарко 1003.1 911.2
ЮЗ 1 50 км гроза, ливневой дождь 10/10 600 м
[Cb cap]
+16.2 +13.5 84 +17 +17 1006.5 912.2 +25.1 0.6
штиль 0 50 км {гроза, ливн. дождь} 8/3 600 м
[Sc Ci fib]
+13.4 +12.7 96 +13 +13 1007.0 911.7
штиль 0 н/о {гроза, ливн. дождь} 3/0 600 м
[Ci fib]
+12.6 +11.9 95 +12 +12 1006.7 911.2
Местоположение метеостанции Коммунар (Хакасия, Россия): широта 54.33 долгота 89.28 высота над уровнем моря 847 м.
В архиве по умолчанию представлена погода в Коммунаре за последнюю неделю. Архивные данные за месяц целиком и за предыдущие месяцы, начиная с января 2011 года, Вы можете получить, выбрав интересующий диапазон дат из раскрывающегося списка и нажав кнопку "Найти!".
*Определитесь, кто Вы:
Внимание! Время в таблицах - всемирное. Для получения местного времени необходимо прибавить поправку, которая равна 7 ч.
Смотрите также архив погоды в соседних городах и на ближайших метеорологических станциях:
Партнеры нашего сайта:      
Пояснения к столбцам:
  • Ветер - указаны скорость ветра в м/с - средняя за 10 мин, порывы в срок и между сроками (в фигурных скобках) и направление, откуда дует ветер: С - северный,
  • СВ - северо-восточный, В - восточный, ЮВ - юго-восточный, Ю - южный, ЮЗ - юго-западный, З - западный, СЗ - северо-западный.
  • Видимость - горизонтальная дальность видимости в метрах или километрах. При видимости от 1 до 10 км при отсутствии осадков обычно наблюдается дымка, при ухудшении видимости до 1 км и менее - туман. В сухую погоду видимость может ухудшаться дымом, пылью или мглою.
  • Явления - указаны атмосферные явления, наблюдавшиеся в срок или в последний час перед сроком; фигурными скобками обозначены явления, наблюдавшиеся между сроками (за 1-3 часа до срока); квадратными скобками обозначены град или гололедные отложения с указанием их диаметра в мм.
  • Облачность - указаны через наклонную черту общая и нижняя облачность в баллах и высота нижней границы облаков в метрах; квадратными скобками обозначены формы облаков: Ci - перистые, Cs - перисто-слоистые, Cc - перисто-кучевые, Ac - высококучевые, As - высокослоистые, Sc - слоисто-кучевые, Ns - слоисто-дождевые, Cu - кучевые, Cb - кучево-дождевые. Подробнее классификацию облаков см. в Атласе облаков (PDF).
  • T - Температура воздуха - температура, измеренная на высоте 2 м над землей.
  • Td - Температура точки росы - температура, при понижении до которой содержащийся в воздухе водяной пар достигнет насыщения.
  • f - Относительная влажность воздуха - влажноcть воздуха, измеренная на высоте 2 м над землей.
  • Te - Эффективная температура - температура, которую ощущает одетый по сезону человек в тени. Характеристика душности погоды. При расчете учитывается влияние влажности воздуха и скорости ветра на теплоощущения человека.
  • Tes - Эффективная температура на солнце - температура, которую ощущает человек, с поправкой на солнечный нагрев. Характеристика знойности погоды. Зависит от высоты солнца над горизонтом, облачности и скорости ветра. Ночью, в пасмурную погоду, а также при ветре 12 м/с и более поправка равна нулю.
  • P - Атмосферное давление - приведенное к уровню моря атмосферное давление.
  • Po - Атмосферное давление - измеренное на уровне метеостанции атмосферное давление.
  • Tmin - Минимальная температура - минимум температуры воздуха на высоте 2 м над землей.
  • Tmax - Максимальная температура - максимум температуры воздуха на высоте 2 м над землей.
  • R - Количество осадков - Количество выпавших осадков за период времени, мм. При наведении курсора мыши на число - период времени, за который выпало указанное количество осадков.
  • R24 - Количество осадков - Количество выпавших осадков за 24 часа, мм.
  • S - Снежный покров - Высота снежного покрова, см. При наведении курсора мыши на число - состояние снежного покрова и степень покрытия местности в баллах.